Dewpoint
58 57 57 52 40 38 33 33 36 35 41 44 49 48 50 51 44 46 65 66 64 66 68 69 72 72 72 72 72 72 72 73 73 73 73 72 72 71 69 68 68 68 68 69 70 69 67 68 68
57 55 54 51 38 29 29 32 36 36 39 45 49 50 49 50 59 60 64 67 66 66 68 67 72 72 72 71 71 72 72 73 72 73 73 72 71 70 69 68 68 69 70 69 68 67 69 69 68
55 55 48 41 39 32 27 32 35 36 38 47 48 52 53 52 59 61 66 67 66 66 67 68 72 72 72 71 71 71 71 73 72 72 72 72 71 70 68 69 70 68 70 69 69 69 68 68 66
51 53 50 41 31 32 32 30 33 34 39 45 47 47 54 59 59 65 67 67 66 66 66 71 72 72 72 72 71 71 71 72 72 72 72 72 71 68 68 70 69 69 70 70 69 69 69 68 66
52 48 37 34 31 29 31 34 33 32 35 45 46 44 48 62 60 65 67 66 65 66 66 69 72 72 72 72 71 70 71 71 71 71 71 70 70 68 68 69 69 70 70 69 68 69 69 68 67
45 42 32 28 26 28 31 37 35 35 34 37 46 45 50 59 59 66 68 66 66 66 67 68 70 72 72 70 70 70 70 71 71 71 70 69 69 68 68 68 69 69 70 69 68 68 68 67 67
43 38 31 26 22 23 29 35 37 36 35 36 46 44 50 55 56 65 68 67 66 66 66 68 68 69 70 70 69 69 70 70 70 70 69 70 69 66 68 69 69 69 69 69 68 67 66 66 66
42 41 34 29 25 23 24 32 36 38 36 36 46 43 47 54 59 64 63 68 67 67 65 68 66 64 64 68 69 68 69 69 69 68 68 66 65 66 68 68 69 69 69 69 68 66 64 63 63
42 37 31 28 26 26 26 28 35 40 38 36 42 48 51 58 63 62 61 62 67 67 66 67 64 62 61 65 67 68 68 67 67 66 65 65 61 62 64 65 67 69 68 67 66 65 63 63 63
37 31 27 26 27 27 29 30 32 36 39 40 40 51 60 62 61 60 59 59 59 66 67 66 63 61 63 64 67 64 62 62 61 63 61 60 61 60 61 65 67 68 68 67 65 64 63 60 54
32 32 26 28 29 30 33 33 35 38 37 39 38 43 60 59 59 58 58 58 59 66 66 65 61 61 61 64 67 67 62 59 58 61 61 60 61 63 62 63 63 62 64 59 61 60 56 55 57
30 28 29 29 30 33 32 36 35 37 37 39 41 47 59 59 58 56 56 58 59 60 66 66 63 60 59 64 65 67 67 62 60 58 58 59 59 59 59 58 59 59 58 57 57 55 55 56 58
29 28 26 29 29 31 37 37 38 40 43 43 42 44 53 58 55 54 54 58 60 60 65 66 65 63 63 61 61 65 66 65 63 63 60 58 57 57 58 57 58 58 59 58 57 58 58 58 58
27 27 28 29 29 33 34 36 40 40 46 48 46 45 47 54 55 54 55 55 59 60 63 65 66 65 63 62 62 60 64 66 66 65 64 62 61 59 60 60 61 60 60 59 59 59 60 59 59
32 29 32 32 32 34 35 36 37 39 43 45 47 44 49 54 55 55 54 54 57 61 63 64 64 65 63 62 62 63 61 63 66 66 66 64 63 62 62 63 63 61 60 59 59 59 58 58 59
31 35 31 31 32 35 38 32 31 42 44 45 48 45 49 54 56 55 55 56 58 62 63 63 63 64 64 63 62 63 64 63 63 64 66 66 64 64 64 64 63 61 61 60 58 57 56 56 58
29 32 33 33 34 37 38 32 34 39 38 41 47 47 51 55 56 56 57 58 61 61 62 61 61 60 61 64 64 63 64 64 64 62 63 65 66 65 64 63 63 62 61 60 59 56 55 56 59
30 29 27 29 36 37 37 39 37 37 39 42 46 48 51 53 56 56 56 60 61 61 60 59 60 59 62 64 65 63 63 63 64 65 63 63 64 66 65 63 62 62 60 57 57 55 56 59 60
31 31 29 36 37 36 35 36 36 36 39 40 46 50 53 55 58 59 60 61 60 61 59 58 59 61 63 65 63 63 63 65 64 63 63 63 63 63 64 63 62 61 59 58 57 57 59 59 60
33 30 31 37 39 36 36 36 36 37 37 40 45 49 53 55 55 56 60 59 60 59 59 60 58 59 62 63 62 61 62 65 65 66 65 64 63 63 63 63 62 61 60 60 60 61 61 59 61
32 26 32 33 36 35 35 36 36 38 40 41 45 45 50 53 53 54 56 59 59 59 59 60 59 60 60 63 64 63 64 65 64 65 65 66 65 65 65 64 64 64 63 63 64 63 62 61 62
28 31 32 34 33 29 33 29 35 37 42 43 44 43 44 50 52 53 54 59 60 59 60 60 60 59 60 65 63 61 61 60 62 63 64 63 65 65 64 65 64 63 63 63 62 61 61 61 59
31 36 34 33 32 30 32 32 35 38 38 40 43 44 42 43 46 49 52 57 60 60 60 60 60 60 61 62 63 63 62 62 63 63 62 61 61 62 63 64 62 61 60 60 59 58 58 57 55
40 35 35 36 33 28 33 34 32 31 29 38 41 43 45 42 43 44 45 48 51 53 56 62 61 61 61 60 61 62 61 62 62 62 62 61 60 60 60 61 61 60 59 58 58 58 56 54 55
37 33 30 27 29 26 34 33 27 27 28 31 38 40 43 43 41 42 44 44 45 46 47 45 49 59 61 62 61 62 62 62 61 61 61 61 59 58 59 60 60 60 58 57 56 54 53 53 52
35 33 28 19 22 26 32 29 27 29 30 32 40 36 39 42 43 40 41 42 43 44 45 44 44 44 48 57 61 62 62 63 62 62 62 61 59 60 59 59 58 56 55 54 52 51 50 50 51
34 30 28 26 27 25 26 24 30 30 31 32 33 34 35 36 38 42 42 42 43 45 46 46 44 45 48 53 57 59 60 61 61 61 61 60 59 59 57 57 55 51 49 48 48 46 47 47 49
34 31 27 31 23 20 19 22 26 28 29 32 31 32 34 36 37 38 40 43 44 46 47 46 46 47 48 50 52 53 55 56 58 59 59 58 57 56 54 52 49 47 46 45 45 45 45 45 46
31 28 27 26 24 19 17 20 24 26 29 30 32 34 35 36 37 37 38 40 42 43 45 46 46 46 47 47 47 47 48 51 54 55 56 55 53 51 49 46 45 44 43 43 43 43 44 43 44
34 30 25 26 21 22 21 20 27 26 31 32 34 35 36 35 34 34 35 35 37 40 42 44 45 45 46 46 47 46 47 48 50 51 52 51 50 48 45 43 42 41 41 41 41 41 42 42 42
Lifted_Index
5 5 5 5 6 7 7 6 4 2 0 -1 -1 -0 -1 -1 -1 -1 -2 -2 -2 -2 -2 -2 -1 -1 -1 -1 -1 -1 -1 -1 -1 -1 -0 -0 0 1 2 3 3 3 3 3 2 3 3 3 3
6 5 5 6 7 7 7 6 4 2 0 -1 -1 -0 -0 -1 -2 -2 -2 -2 -2 -2 -2 -2 -2 -1 -1 -1 -1 -1 -1 -1 -1 -0 -0 0 1 1 2 3 3 3 3 3 3 3 3 3 3
6 6 6 7 8 8 7 6 5 3 0 -1 -1 0 0 -1 -2 -3 -3 -3 -3 -3 -2 -2 -2 -2 -1 -1 -1 -1 -1 -1 -1 -0 0 1 1 2 2 3 3 3 2 2 2 3 3 3 3
7 6 7 8 9 8 6 5 4 2 0 -1 -1 0 0 -1 -2 -3 -3 -3 -3 -3 -2 -2 -2 -2 -1 -1 -1 -1 -1 -1 -1 -0 0 1 2 2 3 2 2 2 2 2 2 2 2 3 3
7 7 8 9 9 8 6 4 3 2 1 -0 -0 0 1 -0 -2 -3 -4 -3 -3 -2 -2 -2 -2 -2 -1 -1 -1 -1 -1 -1 -0 0 1 1 2 3 3 2 2 2 2 2 2 2 2 3 3
8 8 9 10 9 7 5 3 2 1 0 -0 -0 0 0 0 -0 -2 -3 -3 -3 -2 -2 -2 -2 -2 -1 -1 -0 -0 -0 -0 -0 0 1 2 2 3 3 2 2 2 1 2 2 2 3 3 3
8 9 10 10 8 6 4 2 1 0 -0 -0 -0 0 0 1 1 -0 -2 -3 -3 -2 -2 -2 -1 -1 -0 -0 0 0 0 0 0 1 2 2 3 3 3 2 2 2 1 2 2 3 3 4 4
9 9 10 9 7 5 3 2 0 -0 -1 -0 -0 0 0 0 1 1 1 -1 -2 -2 -2 -2 -1 0 0 0 0 1 1 1 1 2 2 3 4 4 3 3 2 2 2 2 2 3 4 5 5
9 9 9 8 6 4 2 1 0 -1 -1 -1 -1 -1 -1 -1 -0 1 2 2 -0 -2 -2 -2 -1 0 1 0 0 1 2 2 2 3 3 4 4 4 4 3 3 2 2 2 3 4 5 6 6
10 9 8 7 4 2 1 1 -0 -1 -1 -1 -1 -2 -3 -3 -1 1 3 3 2 -1 -2 -2 -1 0 0 0 0 1 2 2 3 3 3 4 4 4 4 3 3 3 3 3 4 5 6 7 7
9 8 7 5 3 1 0 0 -1 -1 -1 -1 -1 -2 -3 -3 -2 1 2 3 2 -0 -2 -1 -0 0 0 -0 -1 -0 1 2 3 3 3 4 4 4 4 4 4 4 4 4 5 5 6 6 6
7 6 5 3 2 0 -0 -0 -1 -1 -1 -1 -1 -2 -3 -3 -1 1 2 3 2 1 -1 -1 -0 0 0 -0 -1 -1 -0 1 2 3 4 4 4 4 4 4 4 4 5 5 5 5 5 5 5
4 3 3 2 1 0 -0 -1 -1 -1 -1 -1 -1 -1 -2 -2 -1 1 3 3 3 2 0 -1 -1 -0 -0 -0 -0 -1 -1 -0 1 2 3 4 4 4 4 4 4 4 4 4 4 4 4 4 4
2 2 2 1 1 0 -0 -1 -1 -1 -1 -1 -1 -1 -1 -1 -1 1 2 3 3 2 1 -0 -1 -1 -0 -0 0 -0 -1 -1 -1 0 1 2 3 3 3 3 3 3 3 4 3 3 3 3 3
1 1 1 0 0 -0 -0 -0 -0 -1 -1 -0 -0 -0 -1 -1 -1 0 1 2 2 2 1 1 0 -0 -0 -0 -0 -0 -0 -1 -1 -1 -0 1 1 2 2 2 2 2 3 3 3 3 3 3 2
1 1 1 0 -0 -0 -0 -0 -0 0 0 0 0 -0 -1 -1 -1 -1 -0 0 0 0 1 1 1 0 -0 -0 -1 -1 -1 -1 -1 -1 -1 -1 0 1 1 1 1 1 2 2 3 3 3 3 2
1 1 0 -0 -0 -0 -0 0 0 1 1 0 0 -0 -1 -1 -1 -1 -1 -1 -1 -0 1 1 2 1 -0 -1 -1 -1 -2 -2 -1 -1 -1 -1 -1 -1 -0 -0 -0 0 1 2 3 4 3 2 2
0 0 -0 -0 -0 -0 -0 0 1 1 1 0 0 -0 -1 -1 -1 -2 -1 -1 -1 0 1 2 2 1 -0 -1 -2 -2 -2 -2 -2 -2 -2 -2 -2 -2 -2 -1 -1 -0 1 2 3 3 3 2 1
0 0 -0 -1 -1 -0 0 1 2 2 1 1 -0 -1 -1 -1 -1 -1 -1 -1 0 1 1 1 1 0 -1 -2 -2 -2 -2 -2 -2 -2 -2 -2 -2 -2 -2 -2 -1 -1 0 1 2 1 1 1 0
0 0 -0 -1 -0 0 1 2 3 3 2 1 -0 -1 -1 -0 -0 -1 -0 0 1 1 1 1 1 0 -1 -1 -2 -1 -2 -2 -2 -2 -2 -2 -2 -2 -2 -1 -1 -1 -0 0 0 0 -0 -0 -0
0 -0 -0 -0 -0 1 1 2 2 3 3 2 0 -1 -1 -0 0 1 1 1 1 1 1 1 1 1 -0 -1 -1 -1 -1 -1 -1 -1 -1 -1 -1 -1 -1 -0 -0 -0 -0 0 0 0 0 0 -0
-0 -0 0 0 0 1 1 1 2 2 2 1 0 -0 -0 -0 0 1 1 1 1 1 1 1 0 0 -0 -1 -1 -1 -0 -0 -0 -0 -0 -0 -0 -0 0 0 0 0 1 1 1 1 1 1 1
-0 0 0 1 0 0 1 1 1 2 1 0 -0 -0 -0 -0 1 1 1 1 0 0 0 -0 -0 -0 -0 -1 -1 -0 0 0 0 0 1 1 1 1 1 1 1 1 1 1 2 2 2 3 3
-0 0 1 0 0 0 1 1 1 1 1 0 -0 -0 0 0 1 1 1 1 0 0 0 -0 -1 -1 -1 -1 -1 -0 -0 -0 -0 0 0 1 1 1 1 1 1 1 1 2 2 2 2 3 3
0 0 0 0 0 0 1 1 1 2 2 1 0 0 0 1 1 1 1 1 1 1 1 1 0 -0 -1 -1 -1 -1 -1 -1 -1 -1 -0 0 0 0 1 1 1 1 1 1 1 2 2 3 4
1 1 1 0 0 1 1 1 1 2 2 2 1 1 1 1 1 1 2 1 1 1 1 2 2 2 1 0 -1 -1 -2 -2 -1 -1 -1 -1 -1 -0 -0 0 0 0 1 1 1 2 3 4 5
1 1 1 1 1 0 1 1 1 1 2 2 2 1 2 2 2 2 2 1 1 1 2 2 2 3 2 2 1 0 -0 -0 -0 -1 -1 -1 -1 -1 -1 -1 -0 -0 1 1 2 4 5 6 6
1 1 2 2 1 0 1 1 1 2 2 2 2 2 3 3 3 3 3 2 2 2 2 2 3 3 3 3 3 2 2 2 1 0 -0 -0 -0 -0 -0 -0 -0 1 1 2 4 5 6 6 6
2 2 2 2 1 1 1 1 2 2 2 2 2 3 3 4 4 4 4 3 3 3 3 3 3 3 3 4 4 3 3 3 3 2 1 1 0 0 -0 0 1 1 2 4 5 6 5 5 5
2 2 2 2 2 1 1 2 2 2 2 3 3 3 4 4 5 5 5 4 4 4 4 4 4 4 4 4 4 4 4 4 4 3 3 2 1 0 0 0 1 2 3 5 6 6 5 5 5